RH
84 94 97 92 85 65 61 72 39 30 24 22 26 28 26 24 23 21 16 15 14 13 13 14 15 14 15 16 16 16 17 21 25 28 30 32 32 26 22 20 20 13 10
86 95 94 92 92 72 66 64 46 33 25 24 24 29 27 23 20 23 22 18 15 14 14 14 15 14 15 15 14 15 18 21 24 28 31 32 37 40 38 27 22 20 12
83 90 94 90 86 81 71 53 40 32 26 25 26 34 34 28 23 20 22 22 22 19 16 14 14 13 13 14 15 18 19 21 24 26 30 33 36 37 37 41 32 29 24
81 80 83 89 95 92 82 55 42 36 29 26 23 28 31 31 24 19 20 20 23 24 21 18 17 16 15 16 16 18 20 22 24 27 28 31 33 36 35 36 37 40 36
72 86 93 82 96 88 76 62 42 41 35 29 28 31 56 47 27 18 18 19 22 25 24 20 18 17 16 17 18 19 21 22 27 29 28 29 32 34 34 35 35 38 39
55 54 80 80 82 87 86 76 49 42 44 39 32 38 80 85 28 26 21 21 23 26 23 20 18 18 17 20 20 21 23 25 25 25 26 28 30 34 35 34 37 42 42
56 48 50 62 81 66 70 78 66 48 44 41 36 39 89 86 57 29 28 27 27 27 24 25 23 24 24 23 24 24 24 25 24 25 26 27 30 34 35 35 38 42 42
56 50 49 56 56 59 55 53 64 59 52 47 45 54 70 81 46 30 28 31 32 32 33 32 30 29 28 26 22 23 24 26 28 29 30 30 30 30 32 36 35 36 41
56 59 59 52 51 53 48 57 59 65 71 65 59 55 55 67 57 28 28 31 29 29 28 30 30 28 24 24 25 26 30 32 34 36 36 37 39 38 37 42 52 45 44
65 72 73 66 57 58 51 47 68 66 72 67 60 56 49 44 46 30 28 28 29 33 35 35 34 33 32 32 34 37 37 38 43 42 40 43 46 48 48 54 67 82 69
68 74 72 71 62 65 66 51 58 46 64 75 58 59 53 41 46 48 35 34 33 38 39 35 34 38 41 40 37 37 36 36 38 41 42 46 50 55 61 67 69 90 96
78 72 74 73 68 64 69 62 54 48 40 42 55 47 48 44 41 48 44 40 33 31 36 38 38 41 39 39 39 41 42 44 46 51 57 64 72 93 83 94 94 96 97
81 74 72 74 73 67 75 78 60 58 56 51 47 41 38 41 46 43 35 32 32 34 33 38 41 42 40 41 42 42 44 48 54 56 64 69 78 85 94 98 92 88 88
82 81 90 93 86 67 62 69 77 69 57 56 50 37 43 48 41 31 36 34 29 27 29 36 44 49 52 54 50 48 47 53 59 63 68 73 96 93 61 82 73 95 97
95 96 82 91 82 63 64 61 61 59 55 53 50 46 42 38 39 40 37 40 39 32 32 38 39 42 47 52 54 56 56 62 67 63 69 86 91 83 82 97 97 96 93
96 96 94 96 96 86 65 55 52 49 43 44 46 43 42 42 38 38 36 40 38 36 31 42 46 47 49 50 57 57 59 70 68 62 68 74 96 97 97 97 87 80 61
71 66 97 95 96 96 94 72 51 48 46 48 44 38 35 38 34 39 43 42 34 32 31 39 38 40 39 42 54 60 70 69 66 69 81 96 80 95 72 78 78 52 51
70 69 82 95 79 81 96 95 64 54 58 49 52 52 46 41 36 35 37 40 47 42 36 37 40 40 41 41 48 60 73 71 84 80 76 79 80 98 93 68 44 50 60
66 58 71 86 80 98 97 95 89 64 72 65 57 57 56 54 46 40 39 39 40 46 43 41 41 46 54 50 56 68 72 73 96 79 60 81 94 80 50 43 41 47 69
82 74 67 97 78 73 88 91 95 87 80 68 59 52 52 53 53 50 48 48 49 42 47 44 46 45 54 62 68 70 72 90 76 58 96 88 74 36 27 30 37 46 52
86 65 71 72 78 80 95 93 85 92 88 93 68 50 50 46 55 58 55 54 54 50 50 51 52 47 54 66 82 79 70 55 49 43 51 41 32 17 23 33 62 58 53
76 57 95 99 85 99 92 76 96 94 97 97 100 98 93 96 96 89 83 68 57 59 53 59 80 66 75 72 83 70 91 82 97 37 33 26 17 24 35 46 68 70 37
59 63 81 81 84 85 89 79 76 73 93 81 85 97 82 92 78 86 96 92 93 94 93 95 94 91 97 97 96 96 92 83 48 28 25 11 28 43 33 42 38 37 34
65 62 56 58 63 60 58 65 70 74 73 68 67 75 68 64 59 91 97 76 85 91 96 99 97 92 96 97 95 96 64 42 40 15 10 7 18 39 42 32 28 33 35
64 59 60 60 56 73 84 76 78 68 68 80 80 74 74 94 82 78 70 95 100 94 92 97 98 97 97 90 95 93 82 97 19 11 9 24 36 52 62 22 22 24 29
68 57 46 45 48 51 53 64 75 77 75 81 95 90 92 94 91 85 79 68 89 94 95 98 97 96 88 94 79 58 92 62 20 15 15 43 83 92 32 32 43 34 38
Wind_Speed
29 28 32 29 24 24 23 23 23 19 18 17 15 14 16 17 16 14 14 13 13 13 13 13 12 11 11 9 8 6 6 6 7 8 9 10 11 11 12 12 14 14 11
33 33 34 31 27 26 26 27 26 21 17 15 16 14 17 19 17 16 16 14 14 14 14 14 14 14 13 11 10 9 8 8 8 9 8 11 13 13 13 13 14 14 13
34 33 36 31 29 28 29 28 25 22 18 15 16 15 17 19 18 17 18 17 15 14 15 16 17 16 15 13 12 11 11 11 10 10 10 11 13 15 16 15 15 15 16
33 38 38 36 35 31 30 30 27 24 21 17 16 18 18 19 20 19 18 17 16 16 17 17 17 18 17 16 13 13 13 12 12 13 12 14 15 15 17 16 17 17 18
31 35 35 40 37 33 33 31 28 25 23 21 18 19 21 21 21 21 17 18 18 19 19 18 19 19 18 17 14 14 13 13 13 14 15 16 17 17 18 19 19 20 19
32 33 30 32 34 35 35 33 30 27 24 25 23 19 22 23 21 21 17 16 18 19 18 20 20 19 19 17 15 15 14 14 14 15 16 17 19 19 19 21 22 23 22
32 34 34 34 35 36 35 35 33 30 27 27 27 21 20 21 19 20 20 19 19 20 20 20 20 20 20 16 16 16 15 14 14 16 17 19 20 21 22 23 25 25 26
33 34 34 34 35 35 34 34 34 30 30 29 29 25 23 21 18 18 20 21 21 19 20 22 19 19 19 16 15 15 15 15 15 16 18 19 21 23 25 25 27 30 30
35 35 35 37 37 34 33 35 34 33 34 33 32 29 26 22 22 22 22 23 24 21 20 21 21 20 19 18 16 15 15 16 17 18 20 22 24 25 27 26 29 32 34
40 39 38 37 38 37 36 34 35 35 37 35 34 30 28 24 23 24 24 24 23 21 22 23 24 23 22 19 18 18 17 18 21 22 24 26 27 29 31 33 33 39 39
48 46 40 38 38 38 37 37 35 35 37 37 35 35 32 30 27 26 26 25 25 25 26 27 26 24 24 23 22 22 22 22 24 24 26 28 31 32 34 38 40 42 39
54 51 47 43 40 40 39 37 38 37 36 38 40 38 35 33 30 31 30 30 30 29 29 28 27 27 27 26 26 27 26 25 26 29 30 32 33 36 38 43 42 43 49
57 54 50 46 44 43 43 43 41 39 38 38 38 37 37 35 36 35 35 34 33 32 31 29 28 29 28 29 29 30 30 29 30 32 33 35 37 36 36 40 46 42 43
55 55 53 48 46 44 44 44 43 42 41 40 40 40 39 38 38 38 38 39 38 37 35 29 31 29 28 31 31 32 33 34 35 36 35 36 40 41 35 47 45 62 53
51 49 50 49 49 45 44 45 45 44 43 42 43 41 41 40 42 40 40 40 40 39 35 32 32 31 31 34 33 35 35 37 39 40 38 37 32 36 44 47 51 44 49
38 40 49 48 50 49 48 47 46 46 45 42 42 43 43 41 42 43 42 40 42 44 43 37 35 36 38 38 36 36 37 40 39 41 41 40 45 47 51 41 41 41 42
46 47 52 52 53 53 51 49 49 49 50 48 45 44 43 43 43 43 45 46 48 47 47 43 44 43 43 41 39 40 41 39 40 42 46 46 44 42 50 35 40 43 44
51 50 52 54 49 52 53 52 53 55 52 51 49 48 47 47 48 46 46 47 48 50 50 49 49 47 48 48 46 44 41 39 39 44 43 44 47 38 43 40 44 47 45
59 57 59 59 60 44 62 60 57 59 57 57 55 55 53 53 53 52 51 50 51 53 53 54 54 53 49 49 47 46 43 43 43 43 48 49 48 38 45 44 43 47 44
61 62 64 47 62 62 63 52 48 59 64 59 57 58 57 56 55 57 57 56 56 57 56 57 57 57 53 51 49 48 45 48 49 47 44 43 50 50 51 47 45 47 49
61 64 70 73 67 71 64 59 63 61 61 51 54 63 60 63 62 59 62 60 59 60 59 59 60 63 59 54 49 46 47 54 50 51 48 51 51 53 51 49 46 49 54
66 65 66 62 69 64 67 68 55 53 42 49 57 56 55 44 49 65 64 65 61 64 62 65 65 65 58 59 53 64 48 45 43 48 50 50 49 51 47 47 49 54 53
66 64 65 67 68 68 67 68 72 76 71 71 68 68 69 67 68 66 60 62 55 70 71 62 70 68 63 51 53 57 55 38 46 48 48 46 50 49 48 47 51 55 58
70 69 71 66 62 61 65 64 66 70 72 73 72 74 70 72 73 57 43 65 55 65 68 66 78 77 52 42 61 48 46 49 51 48 48 50 54 53 53 55 60 62 62
68 67 71 72 71 67 64 62 60 63 65 64 66 69 67 59 58 70 63 51 47 48 44 67 69 58 66 56 48 38 48 45 52 50 51 57 59 57 59 60 62 64 67
71 69 72 72 71 72 73 72 69 69 67 66 63 61 67 71 67 72 72 64 67 64 61 61 51 51 53 55 41 49 52 60 59 58 59 62 57 65 65 65 69 70 69
Wind_Direction
245 228 240 240 231 240 243 247 249 247 251 250 242 235 247 250 241 238 234 230 232 229 229 229 232 235 246 256 266 275 292 299 309 313 315 318 317 319 318 312 326 328 323
235 226 235 240 232 235 238 243 246 243 248 251 252 239 245 251 248 245 243 241 239 240 241 241 243 243 250 257 269 270 267 270 279 288 303 308 314 323 322 315 313 322 326
229 221 234 234 227 233 237 243 245 245 245 242 242 238 238 249 253 247 247 244 245 248 253 254 255 258 261 259 260 263 267 269 276 280 288 296 306 317 325 324 316 316 317
235 226 233 234 231 234 239 240 241 244 244 243 236 239 235 243 251 245 243 247 246 249 252 253 256 260 261 259 260 264 270 279 280 286 289 289 294 303 312 319 318 317 316
232 233 235 225 235 235 239 245 243 242 242 245 237 238 240 239 242 247 241 241 243 246 251 252 254 256 259 261 263 267 274 276 279 283 284 287 292 299 301 305 310 310 310
228 228 221 221 230 234 238 244 243 241 240 242 242 234 244 239 240 246 243 238 241 246 247 249 252 255 255 259 262 263 265 271 277 282 282 286 289 292 294 299 302 304 304
227 228 227 225 233 238 239 239 239 237 237 240 243 236 226 235 239 241 244 243 242 245 248 255 255 257 260 258 257 262 266 275 282 284 284 283 283 287 291 293 295 297 299
225 227 229 229 232 235 235 236 238 237 235 238 244 243 235 233 238 243 243 246 247 247 251 254 258 261 264 264 261 265 272 280 284 282 285 286 288 288 287 288 293 295 294
231 223 226 228 232 234 234 235 235 235 235 235 240 242 241 234 232 233 233 237 244 244 250 256 259 261 262 262 264 265 273 279 280 284 287 289 287 286 284 287 293 293 291
229 226 222 226 231 233 235 237 235 235 233 235 239 243 244 240 236 235 239 240 245 250 249 252 255 258 262 267 270 271 273 276 281 285 288 288 288 289 288 288 291 296 287
229 229 225 224 228 233 235 235 237 240 239 239 238 242 241 239 236 239 240 241 240 244 247 249 256 263 269 272 277 280 282 283 284 285 287 289 293 294 293 293 287 286 298
229 232 229 227 228 231 235 238 236 234 236 239 239 239 239 241 239 240 242 242 240 243 247 253 261 265 271 277 278 280 282 284 287 288 291 294 290 297 292 293 296 301 302
223 229 232 229 229 231 233 235 239 240 240 239 242 244 243 242 243 242 245 248 249 248 249 249 255 259 266 273 276 278 280 281 280 284 289 293 296 295 304 299 296 300 308
222 225 230 230 228 231 234 237 240 242 245 245 243 240 242 244 244 244 246 249 252 252 250 248 253 258 261 264 270 274 276 279 281 283 285 294 300 303 306 306 307 301 298
228 228 229 231 233 233 233 235 241 243 243 245 249 247 244 243 247 246 247 251 256 259 258 254 252 255 256 258 259 264 269 274 276 278 285 287 306 297 302 293 286 304 299
243 241 236 232 231 232 232 233 234 238 243 244 245 249 251 250 251 253 253 252 255 258 256 256 254 250 252 255 257 259 263 265 273 276 283 290 287 287 290 302 300 305 307
237 242 243 236 237 238 235 236 238 238 238 238 239 243 246 248 247 249 250 250 252 255 259 258 258 256 255 257 259 259 259 264 272 280 286 286 290 292 294 304 304 303 300
234 237 242 246 252 249 247 238 237 238 239 242 243 245 247 247 249 247 247 249 251 255 256 256 256 256 259 259 258 258 262 266 274 280 288 288 290 296 295 306 304 305 303
236 236 239 239 239 236 245 250 242 244 243 242 244 245 245 246 248 250 248 248 248 249 253 255 256 256 254 258 259 262 267 272 279 282 280 295 283 300 296 301 302 299 298
238 240 241 242 244 248 252 256 246 251 245 243 245 248 249 249 250 251 250 249 249 249 250 253 255 257 254 252 254 258 266 270 274 275 280 282 287 290 293 296 295 291 296
241 243 244 243 246 243 248 247 252 255 256 238 246 251 251 253 249 249 251 251 252 253 253 253 253 255 254 254 256 259 263 263 266 268 278 283 282 293 294 294 292 290 294
244 244 243 245 249 254 248 249 244 245 257 244 243 257 255 257 256 253 246 249 253 255 254 255 252 253 254 256 259 267 256 272 269 270 275 280 289 292 299 302 300 294 300
247 249 245 246 249 250 252 249 248 253 259 256 260 262 260 259 264 262 252 250 266 260 256 254 266 253 260 255 262 262 257 268 265 271 278 282 285 288 292 292 292 292 294
248 249 251 251 250 251 253 252 252 253 254 255 255 256 260 261 261 263 263 275 258 264 254 260 262 255 260 255 256 264 262 265 268 273 277 281 283 286 287 289 290 292 294
246 247 251 250 252 255 253 254 254 253 256 257 257 256 257 257 265 258 259 260 259 260 254 255 253 263 274 264 250 258 266 263 269 272 274 277 282 283 282 286 288 291 292
249 253 254 254 255 256 257 257 257 258 257 255 256 260 261 260 258 257 259 262 256 259 265 257 258 259 264 260 254 260 259 265 266 269 271 272 274 279 282 284 287 288 290